Home   Weather   Cork   Past weeks

Flag for Ireland Past Weather in Cork, Ireland — Yesterday and Last 2 Weeks

Now
48 °F

Rain. Low clouds.


Feels Like: 44 °F
Forecast: 47 / 50 °F
Wind: 7 mph from Southwest

Location: Cork Airport

Current Time: Jan 24, 2017 at 7:36:37 am

Latest Report: Jan 24, 2017 at 6:00 am


Visibility: 2 mi

Pressure: 30.15 "Hg

Humidity: 98%

Dew Point: 47 °F

Location of CorkLocation

Past Weather in Cork — Graph

°F

Cork Temperature Yesterday

Maximum temperature yesterday: 48 °F (at 12:00 pm)
Minimum temperature yesterday: 42 °F (at 12:00 am)
Average temperature yesterday: 45 °F

High & Low Weather Summary for the Past Weeks

 TemperatureHumidityPressure
High54 °F (Jan 10, 5:00 pm)99% (Jan 17, 3:00 pm)30.63 "Hg (Jan 17, 3:00 pm)
Low32 °F (Jan 13, 6:00 am)58% (Jan 11, 12:00 pm)29.73 "Hg (Jan 12, 2:00 pm)
Average43 °F87%30.28 "Hg
* Reported Jan 9 6:00 am — Jan 24 6:00 am, Cork, Weather by CustomWeather, © 2017

Note: Actual official high and low records may vary slightly from our data, if they occured in-between our weather recording intervals... More about our weather records

Advertising

Cork Weather History for the Previous 24 Hours

Scroll right to see more
 ConditionsComfort  
Time TempWeatherWind HumidityBarometerVisibility
6:00 am
Tue, Jan 24
48 °FRain. Low clouds.7 mph98%30.15 "Hg2 mi
5:00 am47 °FRain. Low clouds.8 mph98%30.15 "Hg4 mi
4:00 am47 °FDrizzle. Low clouds.9 mph98%30.15 "Hg4 mi
3:00 am47 °FLight rain. Low clouds.9 mph97%30.15 "Hg4 mi
2:00 am47 °FLight rain. Low clouds.7 mph97%30.16 "Hg7 mi
1:00 am47 °FLight rain. Low clouds.7 mph96%30.17 "Hg7 mi
12:00 am47 °FLight rain. Low clouds.8 mph95%30.18 "Hg7 mi
11:00 pm
Mon, Jan 23
47 °FLow clouds.8 mph93%30.18 "Hg19 mi
10:00 pm47 °FLow clouds.8 mph93%30.19 "Hg19 mi
9:00 pm47 °FOvercast.8 mph92%30.19 "Hg19 mi
8:00 pm47 °FOvercast.7 mph91%30.19 "Hg19 mi
7:00 pm47 °FOvercast.7 mph91%30.20 "Hg16 mi
6:00 pm46 °FOvercast.6 mph91%30.21 "Hg16 mi
5:00 pm46 °FOvercast.6 mph88%30.21 "Hg16 mi
4:00 pm47 °FOvercast.7 mph87%30.22 "Hg16 mi
3:00 pm47 °FPartly sunny.6 mph84%30.22 "Hg19 mi
2:00 pm47 °FScattered clouds.7 mph85%30.23 "Hg19 mi
1:00 pm48 °FScattered clouds.7 mph82%30.25 "Hg22 mi
12:00 pm48 °FScattered clouds.8 mph86%30.27 "Hg25 mi
11:00 am47 °FPartly sunny.7 mph87%30.27 "Hg19 mi
10:00 am45 °FPassing clouds.6 mph93%30.27 "Hg16 mi
9:00 am44 °FScattered clouds.5 mph96%30.27 "Hg16 mi
8:00 am44 °FOvercast.3 mph96%30.27 "Hg16 mi
7:00 am44 °FOvercast.3 mph97%30.27 "Hg16 mi
Weather by CustomWeather, © 2017

See weather overviewHow to use our weather pages